Find Starlink 34931

NORAD ID: 65398 Int'l Des: 2025-191 Owner: SPXS Country: US Constellation: starlink operational
LEOCIRCULARRETROGRADESSO

实时位置

正在加载3D地球...

关于 Starlink 34931

正在加载描述...

即将过境

Passes for default location (London). Set your location on the main map for personalized predictions.

高度历史

Loading altitude history...

两行轨道根数

1 65398U 25191V 26107.14966045 .00003030 00000-0 21410-3 0 9997
2 65398 97.6039 339.3893 0002609 75.3164 284.8352 15.05653734 36053
Epoch: Apr 17, 2026 • Age: 16 hours

当前状态

高度 558.7 km
速度 7.58 km/s
星下点 -23.70°S, 154.1°W
发射日期 Aug 30, 2025
运行时间 0.6 years
类型 internet

技术详情

分类 Payload
质量 575.00 kg
干质量 530.00 kg
总质量 575.00 kg
长度 0.30 m
直径 4.10 m
跨度 29.00 m
形状 Box + pan
制造商 SPXS
平台类型 Starlink V2MO
阶段状态 In Orbit
所有者/国家 SPXS/US

Most Searched